Accueil
METAR-TAF:

METAR-TAF

Aéroports :

Jefferson City Memorial Airport

Jefferson City, Missouri, États-Unis

latitude: 38-35-40N, longitude: 092-09-21W, altitude: 167 m

Observation

Le bulletin a été fait il y a 45 minutes, à 19:53 UTC
Vent 11 kt de sud/sud-est avec des rafales jusqu'à 20 kt
Température 23°C
Humidité 29%
Pression 1013 hPa
Visibilité: 16.1 km
Ciel clair

METAR: KJEF 021953Z 16011G20KT 10SM CLR 23/04 A2992 RMK AO2 SLP120 T02330039

Heure: 15:38 (20:38 UTC)


TAF: absent

Observations et prévisions météorologiques de plus de 4000 aéroports (messages METAR et TAF).

Les stations disponibles sont représentées par des disques jaunes et rouges sur la carte.

Passer la souris dessus pour voir le nom de la station.

Cliquer dessus pour voir les observations et prévisions météorologiques.

Pour changer de carte: cliquez sur les boutons verts avec une croix noire pour zoomer, sur le bouton vert avec un tiret pour effectuer un zoom arrière, ou sur les flèches vertes pour les cartes adjacentes.


METAR-TAF: